Location: Shell Point
(30.0571°N, 84.2896°W)
Time: 05:49:04
(UTC-04:00)

Meteor 2-19 Rocket - Visible Passes

Search period start: 19 September 2014 00:00
Search period end: 29 September 2014 00:00
Orbit: 937 x 958 km, 82.5° (Epoch: 18 September)

Date Brightness Start Highest point End Pass type
(mag) Time Alt. Az. Time Alt. Az. Time Alt. Az.
19 Sep 8.0 06:19:23 10° E 06:21:03 11° E 06:22:42 10° ENE visible
19 Sep 7.8 20:45:54 10° WNW 20:47:54 12° W 20:49:55 10° WSW visible
20 Sep 7.4 06:33:28 10° SE 06:37:45 20° E 06:42:03 10° NE visible
21 Sep 6.5 06:49:08 10° SSE 06:54:33 34° E 06:59:59 10° NNE visible
22 Sep 7.2 19:49:46 10° NW 19:54:36 25° W 19:59:25 10° SW visible
23 Sep 7.8 20:08:14 10° NW 20:11:21 15° W 20:14:28 10° WSW visible
24 Sep 7.4 05:57:30 10° ESE 06:01:11 17° E 06:04:53 10° NE visible
25 Sep 6.6 06:12:51 10° SE 06:17:57 28° E 06:23:05 10° NNE visible
26 Sep 5.6 06:28:58 10° SSE 06:34:48 48° E 06:40:40 10° NNE visible
27 Sep 4.7 06:45:37 10° S 06:51:44 80° E 06:57:54 10° N visible
28 Sep 7.4 05:21:46 10° ESE 05:24:38 14° E 05:27:30 10° NE visible
